www.pogodaiklimat.ru

Погода и климат >> Архив погоды >> Австралия >> Западная Австралия >> Фицрой-Кроссинг


ПОГОДА в Фицрой-Кроссинге

  • Прогноз погоды в Фицрой-Кроссинге
  • Монитор погоды в Фицрой-Кроссинге

АРХИВ ПОГОДЫ в Фицрой-Кроссинге

Время (UTC), дата Ветер
(напр.,м/с)
 
Видим.   Явления Облачность Т
(С)
Тd
(С)
f
(%)
Тe
(С)
Тes
(С)
Комфортность P
(гПа)
Po
(гПа)
Тmin
(С)
Tmax
(С)
R
(мм)
R24
(мм)
S
(см)
16 18.05 Ю 3 н/о н/о +24.1 +5.5 30 +24 +24 комфорт 1013.7 1000.5
18 18.05 ЮЗ 4 н/о н/о +21.8 +3.9 31 +22 +22 комфорт 1013.6 1000.4
19 18.05 Ю 4 н/о н/о +23.1 +4.1 29 +23 +23 комфорт 1013.4 1000.2
21 18.05 Ю 5 н/о н/о +23.6 +2.4 25 +23 +23 комфорт 1013.6 1000.4
22 18.05 Ю 4 н/о н/о +22.9 +2.9 27 +23 +23 комфорт 1014.6 1001.4
00 19.05 Ю 3 н/о н/о +27.4 +8.8 31 +27 +27 жарко 1015.5 1002.3
01 19.05 Ю 3 н/о н/о +30.5 +12.4 33 +31 +31 жарко 1015.6 1002.4 +21.8
03 19.05 ЮВ 3 н/о н/о +34.9 +15.3 31 +37 +37 очень
душно
1014.2 1001.0
04 19.05 ЮВ 4 н/о н/о +36.5 +14.5 27 +38 +38 очень
душно
1013.2 1000.0
06 19.05 Ю 5 н/о н/о +35.8 +13.3 26 +36 +36 очень
жарко
1011.5 998.3
07 19.05 ЮВ 5 н/о н/о +37.2 +13.3 24 +37 +37 очень
жарко
1011.1 997.9
09 19.05 ЮВ 3 н/о н/о +34.4 +12.7 27 +35 +35 очень
жарко
1011.8 998.6
10 19.05 ЮВ 2 н/о н/о +32.3 +12.5 30 +33 +33 жарко 1012.2 999.0
12 19.05 СВ 7 н/о н/о +31.0 +17.0 43 +35 +35 очень
душно
1014.1 1000.9
13 19.05 В 4 н/о н/о +29.5 +17.0 47 +33 +33 душно 1014.6 1001.4 +38.3
15 19.05 ЮВ 3 н/о н/о +27.0 +16.6 53 +31 +31 душно 1014.6 1001.4
16 19.05 штиль 0 н/о н/о +25.3 +15.6 55 +28 +28 жарко 1014.5 1001.3
18 19.05 В 2 н/о н/о +24.3 +17.1 64 +28 +28 душно 1014.3 1001.1
19 19.05 В 3 н/о н/о +24.1 +16.1 61 +27 +27 жарко 1014.4 1001.2
21 19.05 ЮВ 2 н/о н/о +24.1 +15.6 59 +27 +27 жарко 1014.6 1001.4
22 19.05 штиль 0 н/о н/о +22.2 +15.1 64 +26 +26 душно 1015.1 1001.9
00 20.05 ЮВ 4 н/о н/о +28.4 +16.7 49 +32 +32 душно 1016.0 1002.8
01 20.05 В 5 н/о н/о +31.1 +15.9 40 +34 +34 душно 1016.5 1003.3 +22.1
03 20.05 ЮВ 3 н/о н/о +34.1 +15.5 33 +36 +36 душно 1015.1 1001.9
04 20.05 В 5 н/о н/о +35.0 +15.3 31 +37 +37 очень
душно
1014.2 1001.0
06 20.05 В 3 н/о н/о +36.6 +15.1 28 +38 +38 очень
душно
1012.6 999.4
07 20.05 СВ 4 н/о н/о +35.6 +14.3 28 +37 +37 душно 1012.4 999.2
09 20.05 ЮВ 3 н/о н/о +33.6 +13.6 30 +35 +35 душно 1013.1 999.9
10 20.05 ЮВ 2 н/о н/о +31.3 +13.6 34 +33 +33 жарко 1013.6 1000.4
12 20.05 ЮВ 3 н/о н/о +29.3 +13.9 39 +31 +31 жарко 1014.6 1001.4
13 20.05 ЮВ 3 н/о н/о +29.5 +13.7 38 +31 +31 жарко 1014.9 1001.7 +36.7
15 20.05 штиль 0 н/о н/о +26.1 +12.2 42 +28 +28 жарко 1014.8 1001.6
16 20.05 штиль 0 н/о н/о +26.3 +13.8 46 +28 +28 жарко 1014.5 1001.3
18 20.05 В 4 н/о н/о +27.9 +14.2 43 +30 +30 жарко 1014.0 1000.8
19 20.05 штиль 0 н/о н/о +24.4 +12.0 46 +26 +26 жарко 1014.1 1000.9
21 20.05 В 3 н/о н/о +25.3 +14.7 52 +28 +28 жарко 1014.3 1001.1
22 20.05 В 2 н/о н/о +23.1 +11.2 47 +25 +25 комфорт 1014.9 1001.7
00 21.05 В 4 н/о н/о +30.1 +15.4 41 +33 +33 душно 1016.0 1002.8
01 21.05 В 6 н/о н/о +33.0 +15.5 35 +35 +35 душно 1016.1 1002.9 +22.0
03 21.05 В 6 н/о н/о +35.9 +14.5 28 +37 +37 душно 1014.6 1001.4
04 21.05 В 5 н/о н/о +35.9 +13.4 26 +36 +36 очень
жарко
1013.6 1000.4
06 21.05 В 5 н/о н/о +37.3 +11.3 21 +37 +37 очень
жарко
1012.2 999.0
07 21.05 В 6 н/о н/о +36.5 +12.0 23 +36 +36 очень
жарко
1012.3 999.1
09 21.05 В 4 н/о н/о +34.7 +10.5 23 +34 +34 очень
жарко
1012.9 999.7
10 21.05 ЮВ 2 н/о н/о +31.8 +11.0 28 +32 +32 жарко 1013.7 1000.5
12 21.05 В 3 н/о н/о +30.6 +11.1 30 +31 +31 жарко 1014.8 1001.6
13 21.05 В 4 н/о н/о +29.7 +10.8 31 +30 +30 жарко 1015.0 1001.8 +37.8
15 21.05 В 3 н/о н/о +28.3 +10.9 34 +29 +29 жарко 1015.2 1002.0
16 21.05 В 4 н/о н/о +27.6 +11.2 36 +28 +28 жарко 1015.3 1002.1
18 21.05 В 2 н/о н/о +24.1 +9.3 39 +25 +25 комфорт 1015.0 1001.8
19 21.05 В 2 н/о н/о +24.9 +11.8 44 +26 +26 жарко 1015.0 1001.8
21 21.05 В 3 н/о н/о +24.5 +10.4 41 +26 +26 жарко 1015.9 1002.7
22 21.05 СВ 2 н/о н/о +23.0 +10.1 44 +25 +25 комфорт 1016.7 1003.4
00 22.05 СВ 6 н/о н/о +30.2 +7.4 24 +29 +29 жарко 1017.7 1004.4
01 22.05 В 7 н/о н/о +32.8 +6.2 19 +31 +31 жарко 1017.9 1004.6 +22.5
03 22.05 В 6 н/о н/о +35.3 +4.8 15 +33 +33 жарко 1016.7 1003.4
04 22.05 СВ 5 н/о н/о +36.5 +5.7 15 +34 +34 очень
жарко
1015.5 1002.3
06 22.05 В 5 н/о н/о +37.3 +4.3 13 +34 +34 очень
жарко
1013.5 1000.3
07 22.05 В 4 н/о н/о +36.8 +2.8 12 +34 +34 очень
жарко
1013.5 1000.3
09 22.05 В 4 н/о н/о +34.2 +2.9 14 +31 +31 жарко 1014.2 1001.0
10 22.05 ЮВ 3 н/о н/о +31.4 +3.4 17 +29 +29 жарко 1014.9 1001.7
12 22.05 В 4 н/о н/о +29.3 +3.3 19 +27 +27 жарко 1015.8 1002.6
13 22.05 ЮВ 4 н/о н/о +28.8 +3.6 20 +27 +27 жарко 1016.2 1003.0 +37.9
15 22.05 В 5 н/о н/о +27.4 +5.1 24 +26 +26 жарко 1016.3 1003.1
16 22.05 В 5 н/о н/о +26.5 +5.5 26 +26 +26 жарко 1016.2 1003.0
18 22.05 В 4 н/о н/о +25.0 +5.2 28 +25 +25 комфорт 1016.1 1002.9
19 22.05 В 3 н/о н/о +23.9 +4.8 29 +24 +24 комфорт 1016.3 1003.1
21 22.05 В 3 н/о н/о +21.8 +5.3 34 +22 +22 комфорт 1017.7 1004.4
22 22.05 В 2 н/о н/о +18.9 +5.4 41 +20 +20 1018.3 1005.0
00 23.05 В 3 н/о н/о +27.2 +6.6 27 +27 +27 жарко 1019.4 1006.1
01 23.05 В 5 н/о н/о +29.9 +5.9 22 +28 +28 жарко 1019.5 1006.2 +18.9
03 23.05 В 8 н/о н/о +32.4 +1.5 14 +29 +29 жарко 1017.6 1004.3
04 23.05 В 6 н/о н/о +33.1 +1.0 13 +30 +30 жарко 1016.7 1003.4
06 23.05 В 7 н/о н/о +33.9 +2.7 14 +31 +31 жарко 1015.0 1001.8
07 23.05 В 5 н/о н/о +34.0 +2.8 14 +31 +31 жарко 1014.5 1001.3
09 23.05 В 4 н/о н/о +31.3 +1.6 15 +29 +29 жарко 1014.8 1001.6
10 23.05 ЮВ 3 н/о н/о +27.9 +1.4 18 +26 +26 жарко 1015.5 1002.3
12 23.05 ЮВ 4 н/о н/о +27.0 +2.1 20 +25 +25 комфорт 1016.7 1003.4
13 23.05 ЮВ 3 н/о н/о +25.5 +2.2 22 +24 +24 комфорт 1016.8 1003.5 +34.5
15 23.05 ЮВ 2 н/о н/о +21.8 +3.0 29 +22 +22 комфорт 1017.1 1003.8
16 23.05 ЮВ 3 н/о н/о +22.3 +3.4 29 +22 +22 комфорт 1017.1 1003.8
18 23.05 ЮВ 5 н/о н/о +23.3 +2.7 26 +23 +23 комфорт 1015.9 1002.7
19 23.05 ЮВ 3 н/о н/о +20.4 +3.2 32 +21 +21 комфорт 1015.9 1002.7
21 23.05 Ю 3 н/о н/о +18.2 +2.9 36 +19 +19 1016.0 1002.8
22 23.05 С 2 н/о н/о +15.9 +3.0 42 +16 +16 1016.7 1003.4
00 24.05 В 3 н/о н/о +24.8 +5.6 29 +24 +24 комфорт 1017.7 1004.4
01 24.05 В 4 н/о н/о +29.4 +7.3 25 +28 +28 жарко 1017.7 1004.4 +15.8
03 24.05 В 6 н/о н/о +32.8 +6.9 20 +31 +31 жарко 1015.8 1002.6
04 24.05 СВ 6 н/о н/о +33.3 +6.6 19 +31 +31 жарко 1014.3 1001.1
06 24.05 Ю 4 н/о н/о +33.7 +5.3 17 +31 +31 жарко 1012.9 999.7
07 24.05 ЮВ 4 н/о н/о +33.3 +5.0 17 +31 +31 жарко 1012.6 999.4
09 24.05 ЮВ 2 н/о н/о +30.7 +5.2 20 +29 +29 жарко 1013.2 1000.0
10 24.05 ЮВ 3 н/о н/о +27.7 +5.9 25 +27 +27 жарко 1013.8 1000.6
12 24.05 ЮВ 3 н/о н/о +26.3 +5.3 26 +26 +26 жарко 1015.2 1002.0
13 24.05 ЮВ 3 н/о н/о +24.8 +5.1 28 +24 +24 комфорт 1015.6 1002.4 +34.4
15 24.05 Ю 2 н/о н/о +22.3 +5.3 33 +23 +23 комфорт 1015.5 1002.3
16 24.05 штиль 0 н/о н/о +20.2 +4.3 35 +21 +21 комфорт 1015.3 1002.1
18 24.05 СВ 1 н/о н/о +20.0 +5.6 39 +22 +22 комфорт 1014.9 1001.7
19 24.05 штиль 0 н/о н/о +18.1 +4.7 41 +18 +18 1014.5 1001.3
21 24.05 штиль 0 н/о н/о +17.8 +5.4 44 +18 +18 1015.0 1001.8
22 24.05 штиль 0 н/о н/о +16.6 +5.6 48 +17 +17 1015.7 1002.5
00 25.05 В 4 н/о н/о +25.3 +6.5 30 +25 +25 комфорт 1016.7 1003.4
01 25.05 В 4 н/о н/о +29.2 +6.0 23 +28 +28 жарко 1017.0 1003.7 +16.3
03 25.05 В 6 н/о н/о +33.0 +3.9 16 +30 +30 жарко 1014.9 1001.7
04 25.05 В 2 н/о н/о +32.9 +2.9 15 +30 +30 жарко 1014.0 1000.8
06 25.05 В 5 н/о н/о +33.6 +1.4 13 +30 +30 жарко 1012.4 999.2
07 25.05 ЮВ 5 н/о н/о +33.5 +0.2 12 +30 +30 жарко 1012.2 999.0
09 25.05 ЮВ 4 н/о н/о +30.7 +0.2 14 +28 +28 жарко 1012.9 999.7
10 25.05 ЮВ 3 н/о н/о +27.3 +1.7 19 +25 +25 комфорт 1013.6 1000.4
12 25.05 ЮВ 3 н/о н/о +24.5 +2.6 24 +24 +24 комфорт 1014.7 1001.5
13 25.05 ЮВ 3 н/о н/о +23.7 +2.5 25 +23 +23 комфорт 1014.9 1001.7 +34.4
15 25.05 С 2 н/о н/о +18.8 +1.8 32 +19 +19 1014.8 1001.6
16 25.05 штиль 0 н/о н/о +19.2 +2.1 32 +19 +19 1014.5 1001.3

 

Местоположение метеостанции Фицрой-Кроссинг (Западная Австралия, Австралия): широта -18.18 долгота 125.56 высота над уровнем моря 115 м.

В архиве по умолчанию представлена погода в Фицрой-Кроссинге за последнюю неделю. Архивные данные за месяц целиком и за предыдущие месяцы, начиная с января 2011 года, Вы можете получить, выбрав интересующий диапазон дат из раскрывающегося списка и нажав кнопку "Ввод!".


*Определитесь, кто Вы:
робот инопланетянин человек

Внимание! Время в таблицах - всемирное. Для получения местного времени необходимо прибавить поправку, которая равна 8 ч.

Смотрите также архив погоды в соседних городах и на ближайших метеорологических станциях:

Погода на Базе ВВС Curtin (Западная Австралия, Австралия) (196 км)
Погода в Дерби (Северная территория, Австралия) (221 км)
Погода в Холс Крик (Западная Австралия, Австралия) (222 км)
Погода в Робак Запад (Западная Австралия, Австралия) (344 км)
Погода в Аэропорту Аргайл (Западная Австралия, Австралия) (352 км)
Погода в Бруме (Западная Австралия, Австралия) (353 км)
Погода на Острове Адель (Западная Австралия, Австралия) (392 км)
Погода в Уиндеме (Западная Австралия, Австралия) (406 км)
Погода в Кунунарре (Западная Австралия, Австралия) (428 км)
Погода в Калумбуру (Западная Австралия, Австралия) (447 км)

Пояснения к столбцам:

Ветер - указаны скорость ветра в м/с - средняя за 10 мин, порывы в срок и между сроками (в фигурных скобках) и направление, откуда дует ветер: С - северный, СВ - северо-восточный, В - восточный, ЮВ - юго-восточный, Ю - южный, ЮЗ - юго-западный, З - западный, СЗ - северо-западный.
Видимость - горизонтальная дальность видимости в метрах или километрах. При видимости от 1 до 10 км при отсутствии осадков обычно наблюдается дымка, при ухудшении видимости до 1 км и менее - туман. В сухую погоду видимость может ухудшаться дымом, пылью или мглою.
Явления - указаны атмосферные явления, наблюдавшиеся в срок или в последний час перед сроком; фигурными скобками обозначены явления, наблюдавшиеся между сроками (за 1-3 часа до срока); квадратными скобками обозначены град или гололедные отложения с указанием их диаметра в мм.
Облачность - указаны через наклонную черту общая и нижняя облачность в баллах и высота нижней границы облаков в метрах; квадратными скобками обозначены формы облаков: Ci - перистые, Cs - перисто-слоистые, Cc - перисто-кучевые, Ac - высококучевые, As - высокослоистые, Sc - слоисто-кучевые, Ns - слоисто-дождевые, Cu - кучевые, Cb - кучево-дождевые. Подробнее классификацию облаков см. в Атласе облаков (PDF).
T - Температура воздуха - температура, измеренная на высоте 2 м над землей.
Td - Температура точки росы - температура, при понижении до которой содержащийся в воздухе водяной пар достигнет насыщения.
f - Относительная влажность воздуха - влажноcть воздуха, измеренная на высоте 2 м над землей.
Te - Эффективная температура - температура, которую ощущает одетый по сезону человек в тени. Характеристика душности погоды. При расчете учитывается влияние влажности воздуха и скорости ветра на теплоощущения человека.
Tes - Эффективная температура на солнце - температура, которую ощущает человек, с поправкой на солнечный нагрев. Характеристика знойности погоды. Зависит от высоты солнца над горизонтом, облачности и скорости ветра. Ночью, в пасмурную погоду, а также при ветре 12 м/с и более поправка равна нулю.
P - Атмосферное давление - приведенное к уровню моря атмосферное давление.
Po - Атмосферное давление - измеренное на уровне метеостанции атмосферное давление.
Tmin - Минимальная температура - минимум температуры воздуха на высоте 2 м над землей.
Tmax - Максимальная температура - максимум температуры воздуха на высоте 2 м над землей.
R - Количество осадков - Количество выпавших осадков за период времени, мм. При наведении курсора мыши на число - период времени, за который выпало указанное количество осадков.
R24 - Количество осадков - Количество выпавших осадков за 24 часа, мм.
S - Снежный покров - Высота снежного покрова, см. При наведении курсора мыши на число - состояние снежного покрова и степень покрытия местности в баллах.